Regional Weather Roundup
Issued by NWS

Home | Current Version | Previous Version | Graphics & Text | Print | Product List | Glossary On
Versions: 1 2 3 4 5 6 7 8 9 10 11 12 13 14 15 16 17 18 19 20 21 22 23 24 25 26 27 28 29 30 31 32 33 34 35 36 37 38 39 40 41 42 43 44 45 46 47 48 49 50
000
ASUS43 KBIS 262310
RWRND

NORTH DAKOTA REGIONAL WEATHER ROUNDUP
NATIONAL WEATHER SERVICE BISMARCK ND
600 PM CDT MON SEP 26 2016

NOTE: "FAIR" INDICATES FEW OR NO CLOUDS BELOW 12,000 FEET WITH NO
SIGNIFICANT WEATHER AND/OR OBSTRUCTIONS TO VISIBILITY.


NDZ001>003-009>011-017-270000-
NORTHWEST NORTH DAKOTA

CITY           SKY/WX    TMP DP  RH WIND       PRES   REMARKS
WILLISTON      SUNNY     70  37  29 NW13      30.12F
MINOT          SUNNY     65  35  33 NW17G28   30.07F
MINOT AFB      SUNNY     65  34  31 NW16G25   30.05F
$$

NDZ018>021-031>035-040>046-270000-
SOUTHWEST NORTH DAKOTA

CITY           SKY/WX    TMP DP  RH WIND       PRES   REMARKS
BISMARCK       SUNNY     68  35  29 NW16G23   30.10F
DICKINSON      SUNNY     64  35  34 NW10      30.14F
GARRISON         N/A     66  34  30 N16G24    30.08F
HETTINGER ARPT SUNNY     67  38  34 NW15G23   30.18S
$$

NDZ004>008-012>016-024-026-027-054-270000-
NORTHEAST NORTH DAKOTA

CITY           SKY/WX    TMP DP  RH WIND       PRES   REMARKS
GRAND FORKS    MOSUNNY   63  40  42 NW16G28   29.92S
GRND FRKS AFB  SUNNY     63  35  35 N18G28    29.93S
DEVILS LAKE    SUNNY     63  29  27 NW24G31   29.98F
$$

NDZ022-023-025-028>030-036>039-047>053-270000-
SOUTHEAST NORTH DAKOTA

CITY           SKY/WX    TMP DP  RH WIND       PRES   REMARKS
FARGO          SUNNY     66  28  24 NW29      29.93S
JAMESTOWN      SUNNY     63  33  32 NW24G32   30.01F
$$





USA.gov is the U.S. government's official web portal to all federal, state and local government web resources and services.